Regional Weather Roundup
Issued by NWS Wakefield, VA

Home | Current Version | Previous Version | Graphics & Text | Print | Product List | Glossary On
Versions: 1 2 3 4 5 6 7 8 9 10 11 12 13 14 15 16 17 18 19 20 21 22 23 24 25 26 27 28 29 30 31 32 33 34 35 36 37 38 39 40 41 42 43 44 45 46 47 48 49 50
000
ASUS41 KAKQ 051115
RWRAKQ

REGIONAL WEATHER ROUNDUP
NATIONAL WEATHER SERVICE WAKEFIELD VA
700 AM EDT SUN JUL 05 2015

Note: "fair" indicates few or no clouds below 12,000 feet with no
significant weather and/or obstructions to visibility. * = Denotes
station may not report precipitation (e.g., rain,snow,etc.),
thunder or fog.

VAZ042-051-052>054-056-051200-
NORTHERN VIRGINIA

CITY           SKY/WX    TMP DP  RH WIND       PRES   REMARKS
WASH NATIONAL  CLOUDY    72  66  81 NE3       30.12R HAZE
DULLES         FOG       66  65  96 N3        30.12R VSB 1/2
FORT BELVOIR   FOG       68  66  94 CALM      30.11R VSB 1
QUANTICO       CLOUDY    71  68  90 N5        30.11R FOG
FREDERICKSBRG* PTSUNNY   72  72 100 CALM      30.09R FOG
STAFFORD*      FOG       69  68  97 CALM      30.15R VSB 3/4
WARRENTON      PTSUNNY   68  68 100 CALM      30.11R FOG
CULPEPER*      FOG       66  66 100 CALM      30.12R VSB 3/4
MANASSAS*      CLOUDY    68  66  94 CALM      30.11  FOG
LEESBURG*      FOG       66  66 100 N3        30.14R VSB 1/4
WINCHESTER     CLOUDY    66  66 100 CALM      30.13R FOG
FRONT ROYAL*   CLOUDY    66  66 100 CALM      30.12R VSB 3/4
LURAY*         FOG       70  70 100 CALM      30.13R VSB 1/2
$$

VAZ048-049-060>072-079>083-051200-
CENTRAL AND SOUTH CENTRAL VIRGINIA

CITY           SKY/WX    TMP DP  RH WIND       PRES   REMARKS
RICHMOND       FOG       70  68  93 CALM      30.10R VSB 1/4
CHESTERFIELD*  NOT AVBL
PETERSBURG*    FOG       71  71 100 CALM      30.11R VSB<1/4
HANOVER        FOG       68  68 100 CALM      30.12R VSB 1/2
TAPPAHANNOCK*  FOG       71  68  92 CALM      30.11R VSB 1
QUINTON*       NOT AVBL
CHARLOTTSVILLE FOG       66  65  96 N3        30.11R VSB 1/4
GORDONSVILLE*  FOG       66  66 100 CALM      30.11R VSB<1/4
ORANGE*        FOG       68  68 100 CALM      30.13R VSB<1/4
LOUISA*        FOG       70  70 100 E5        30.11R VSB 1/4
BUMPASS*       CLOUDY    69  68  99 CALM      30.11R VSB 1
FARMVILLE*     CLOUDY    68  68 100 CALM      30.10R FOG
CREWE*         CLOUDY    68  67  96 CALM      30.10R
FORT PICKETT*  CLOUDY    69  69  98 S6        30.10R VSB 1/4
CHASE CITY*    PTSUNNY   72  72 100 CALM      30.10R
CLARKSVILLE*   CLOUDY    70  70 100 CALM      30.10R
SOUTH HILL*    PTSUNNY   69  69  99 CALM      30.15R
LAWRENCEVILLE* NOT AVBL
EMPORIA*         N/A     70  70 100 CALM      30.10S
$$

VAZ088>098-051200-
SOUTHEAST VIRGINIA

CITY           SKY/WX    TMP DP  RH WIND       PRES   REMARKS
NORFOLK        CLOUDY    76  71  85 CALM      30.08R
VIRGINIA BEACH MOSUNNY   76  71  85 CALM      30.08R
NORFOLK NAVAL  PTSUNNY   74  72  93 CALM      30.10R FOG
WEST POINT*    CLOUDY    71  69  93 CALM      30.11R VSB<1/4
SALUDA*        FAIR      71  70  97 N6        30.09R
NEWPORT NEWS   MOSUNNY   72  70  93 CALM      30.10R
LANGLEY AFB    MOSUNNY   72  71  97 W2        30.08R
FORT EUSTIS    SUNNY     72 N/A N/A CALM      30.08R
WILLIAMSBURG*  MOSUNNY   73  72  94 CALM      30.11R
HR EXEC AP*    FAIR      72  68  88 CALM      30.11R
FRANKLIN*      MOSUNNY   70  69  97 CALM      30.10R FOG
WAKEFIELD      MOSUNNY   72  70  93 CALM      30.10R FOG
$$

VAZ020-022-025-037-045-051200-
WEST CENTRAL AND SOUTHWEST VIRGINIA

CITY           SKY/WX    TMP DP  RH WIND       PRES   REMARKS
STAUNTON*      FOG       68  67  94 CALM      30.16R VSB 1/2
WAYNESBORO*    CLOUDY    64  64  99 CALM      30.15R
HOT SPRINGS VA MOCLDY    64  64 100 SE5       30.22R
LYNCHBURG      CLOUDY    69  68  96 NE6       30.13R
DANVILLE       CLOUDY    71  69  93 CALM      30.10R
SOUTH BOSTON*  CLOUDY    69  68  95 MISG      30.10R VSB 1/4
MARTINSVILLE   CLOUDY    70  70 100 CALM      30.14R FOG
ROANOKE        CLOUDY    68  66  93 NW3       30.14R
BLACKSBURG     CLOUDY    65  65 100 CALM      30.19R FOG
DUBLIN*        LGT RAIN  66  66 100 CALM      30.17S
MARION*        LGT RAIN  65  64  95 CALM      30.20R VSB 3/4
HILLSVILLE*    CLOUDY    64  64  99 CALM      30.18R FOG
RICHLANDS*     DRIZZLE   65  65 100 CALM      30.17R
WISE*          LGT RAIN  64  64 100 CALM      30.16S
ABINGDON*      LGT RAIN  68  68 100 E6        30.14S
$$

MDZ021>025-VAZ099-100-051200-
SOUTHERN MARYLAND AND THE DELMARVA PENINSULA

CITY           SKY/WX    TMP DP  RH WIND       PRES   REMARKS
PATUXENT RIVER PTSUNNY   72  70  93 CALM      30.10R FOG
BAY BRIDGE APT   N/A     70  68  94 CALM      30.10R
LEONARDTOWN    MOSUNNY   68  66  94 CALM      30.12R
DOVER          MOSUNNY   68  68 100 N3        30.09R
GEORGETOWN     SUNNY     67  65  93 CALM      30.11R FOG
EASTON         PTSUNNY   68  68 100 CALM        N/A  FOG
CAMBRIDGE      CLOUDY    70  66  88 CALM      30.10R VSB 1
SALISBURY      CLOUDY    70  69  97 E3        30.10R FOG
OCEAN CITY     CLOUDY    72  69  90 CALM      30.10R
WALLOPS ISLAND CLOUDY    71  71 100 N3        30.10R
ACCOMACK*      CLOUDY    70  70 100 NE5       30.10R FOG
$$

NCZ012>017-030>032-051200-
NORTH CENTRAL AND EASTERN NORTH CAROLINA

CITY           SKY/WX    TMP DP  RH WIND       PRES   REMARKS
ROANOKE RAPIDS FAIR      70  70 100 CALM      30.10R FOG
RALEIGH        MOCLDY    73  69  87 S3        30.11R
ELIZABETH CITY MOSUNNY   73  71  93 SW5       30.09R
AHOSKIE*       MOSUNNY  N/A N/A N/A CALM      30.10R HAZE
EDENTON*       MOSUNNY   76  72  87 W5        30.09R
CURRITUCK*     MOSUNNY   73  71  91 CALM      30.10R
KILL DEVIL HLS MOSUNNY   77  72  84 CALM      30.09R
MANTEO         MOSUNNY   76  72  87 SW3       30.10R
CAPE HATTERAS  PTSUNNY   76  74  93 W10       30.11R
TARBORO*         N/A     75  71  87 SW7       30.10R
GOLDSBORO      CLOUDY    76  71  84 SW6       30.09R
WASHINGTON     PTSUNNY   76  73  91 SW5       30.10R
GREENVILLE     PTSUNNY   75  73  94 W6        30.11S
NEW BERN       PTSUNNY   77  70  79 S5        30.12R
WILMINGTON     MOCLDY    76  66  71 SW7       30.13R
$$

VAZ048-051200-
ELSEWHERE

CITY           SKY/WX    TMP DP  RH WIND       PRES   REMARKS
HARRISBURG PA  FOG       63  62  97 NW5       30.12R VSB 1/16
BALTIMORE      PTSUNNY   67  65  93 CALM      30.10R FOG
ANNAPOLIS      MOSUNNY   70  66  87 NW5       30.10R FOG
ANDREWS AFB    PTSUNNY   66  66 100 N2        30.11R FOG
PHILADELPHIA   PTSUNNY   69  61  75 CALM      30.11R
HENDERSON NC   PTCLDY    70  67  92 CALM      30.10R FOG
GREENSBORO     MOCLDY    72  69  90 SW5       30.10R
ROCKY MOUNT    MOSUNNY   74  72  93 S8        30.10R
$$

VAZ100-051200-
MARINE

STATION/POSITION TIME  TEMP    WIND        PRES    WAVE   SWELL
                       AIR SEA DIR/SP/G            HT/PER HT/PER
                 (UTC) (F)     (DEG/KT/KT) (MB)    (FT/S) (FT/S)
BRANDYWINE LGT   1000   71 74   70/  6/  6 1018.6R
CAPE MAY NJ      1000   69 76   50/  1/  3 1018.1R
LEWES DE         1000   70 73   60/  1/  2 1018.1R
15NM E FENWICK I 1050   72 73              1018.6R   4/ 7
OCEAN-CITY-INLET 1000   72 74   70/  4/  6 1018.0R
WACHAPREAGUE VA  1000   71 79  350/  2/  3 1018.4R
THOMAS POINT MD  1100   71 76   30/  7/  8 1020.0R
GOOSES REEF MD   1100   74 77   60/  6/  8 1020.2R
COVE POINT MD    1000   71      80/  4/  8 1018.8R
SOLOMONS ISLAND  1000      79                N/A
BISHOPS HEAD MD  1000   72      50/  3/  5 1018.1R
PINEY POINT MD   1000           70/  2/  2   N/A
CAMBRIDGE MD     1000   71 79   80/  3/  4 1018.0R
LEWISETTA VA     1000   72 79  360/  2/  3 1018.2R
RAPPAHANNOCK LGT 1000          350/  5/  6 1018.7R
STINGRAY PT      1100   76 80   20/  6/  8 1018.9R
YORK RVR RNG VA  1000   75      10/  3/  4 1017.7R
YORKTOWN VA      1000   73 79  360/  2/  3 1018.0R
JAMESTOWN VA     1100   72 82   20/  4/  6   N/A
DOMINION TERM VA 1000   75      40/  2/  3 1018.1R
KIPTOPEKE VA     1000      81  110/  2/  2   N/A
CHES BAY BRIDGE  1000   76 78  330/  4/  5 1017.7R
CAPE HENRY VA    1000   75     290/  2/  2   N/A
CHESAPEAKE LGHT  1000   75     330/  4/  4 1019.0R
WILLOUBY STN VA  1000   75     350/  3/  3 1019.0R
CAPE HENRY BUOY  1028      77                N/A     2/ 7
1ST LANDING BUOY 1100      76              1018.5R   1/ 6
CAPE CHARLES BUO 1026      77                N/A     2/ 9   2/ 9
OFFSHORE WE BUOY 1011      77                N/A     3/ 7   3/ 7
64NM E OF VA BCH 1050   77 76  320/  8/ 12 1018.6R   4/ 7   3/ 7
DUCK PIER NC     1000   77 73  280/  6/  7   N/A
44100 DUCK FRF   1024      78                N/A     3/ 7
44056 DUCK FRF   1011      77                N/A     2/14   2/14
OREGON INLET NC  1000   77 78  250/  5/  7 1018.6R
HATTERAS NC      1000   77 79  220/  8/ 11 1018.8R
DIAMOND SHLS NC  1050   80 81  230/ 17/ 21 1019.4R   5/ 6   2/ 9
CAPE LOOKOUT NC  1100   80     230/  9/ 12 1020.1R
$$


USA.gov is the U.S. government's official web portal to all federal, state and local government web resources and services.